AAL3755 MMMY-KMIA

Flight info

Callsign AAL3755
Flight time 2h 24m
Altitude 39000
Route OVEMA1B OVEMA DCT CAMUI DCT CATFS DCT KELPP DCT TRESR DCT DOWRY FROGZ5
Aircraft A319/M-SDE3FGHIRWY/LB1

Departure

Time 2026-04-26 11:55
Airport Monterrey International Airport (MMMY)

Arrival

Time 2026-04-26 14:19
Airport Miami International Airport (KMIA)
Time Latitude Longitude Altitude Speed Heading
2026-04-26 11:33 25.77751 -100.11281 1331 ft 0 kts 31°
2026-04-26 11:42 25.77722 -100.11303 1331 ft 4 kts 43°
2026-04-26 11:43 25.77707 -100.11325 1337 ft 4 kts 85°
2026-04-26 11:43 25.77708 -100.11338 1337 ft 0 kts 121°
2026-04-26 11:46 25.77704 -100.11330 1338 ft 2 kts 121°
2026-04-26 11:47 25.77692 -100.11308 1333 ft 4 kts 121°
2026-04-26 11:47 25.77678 -100.11270 1333 ft 6 kts 88°
2026-04-26 11:47 25.77712 -100.11237 1332 ft 8 kts 35°
2026-04-26 11:47 25.77731 -100.11180 1331 ft 9 kts 79°
2026-04-26 11:48 25.77771 -100.11124 1334 ft 11 kts 30°
2026-04-26 11:48 25.77830 -100.11074 1331 ft 8 kts 85°
2026-04-26 11:48 25.77801 -100.11003 1331 ft 11 kts 122°
2026-04-26 11:48 25.77757 -100.10924 1331 ft 13 kts 120°
2026-04-26 11:49 25.77708 -100.10831 1331 ft 15 kts 120°
2026-04-26 11:49 25.77651 -100.10728 1331 ft 16 kts 122°
2026-04-26 11:49 25.77588 -100.10615 1331 ft 18 kts 122°
2026-04-26 11:49 25.77520 -100.10493 1331 ft 19 kts 122°
2026-04-26 11:50 25.77446 -100.10360 1331 ft 21 kts 120°
2026-04-26 11:50 25.77371 -100.10220 1331 ft 22 kts 121°
2026-04-26 11:50 25.77290 -100.10073 1331 ft 23 kts 121°
2026-04-26 11:50 25.77206 -100.09920 1331 ft 24 kts 122°
2026-04-26 11:51 25.77118 -100.09761 1331 ft 25 kts 121°
2026-04-26 11:51 25.77030 -100.09598 1331 ft 25 kts 121°
2026-04-26 11:51 25.76938 -100.09428 1331 ft 26 kts 121°
2026-04-26 11:51 25.76883 -100.09328 1334 ft 10 kts 121°
2026-04-26 11:52 25.76881 -100.09277 1331 ft 11 kts 68°
2026-04-26 11:52 25.76912 -100.09245 1334 ft 3 kts 30°
2026-04-26 11:52 25.76931 -100.09233 1331 ft 5 kts 30°
2026-04-26 11:53 25.76964 -100.09212 1334 ft 7 kts 30°
2026-04-26 11:53 25.77010 -100.09183 1331 ft 8 kts 30°
2026-04-26 11:53 25.77031 -100.09197 1331 ft 5 kts 295°
2026-04-26 11:54 25.77091 -100.09307 1331 ft 30 kts 302°
2026-04-26 11:54 25.77349 -100.09778 1331 ft 109 kts 301°
2026-04-26 11:54 25.77861 -100.10704 1368 ft 166 kts 302°
2026-04-26 11:54 25.78505 -100.11867 1812 ft 187 kts 302°
2026-04-26 11:55 25.79215 -100.13152 2375 ft 203 kts 301°
2026-04-26 11:55 25.79720 -100.14076 2812 ft 208 kts 301°
2026-04-26 11:55 25.80467 -100.15490 3466 ft 222 kts 300°
2026-04-26 11:55 25.81282 -100.17057 3964 ft 246 kts 299°
2026-04-26 11:56 25.82180 -100.18777 4490 ft 269 kts 299°
2026-04-26 11:56 25.83148 -100.20614 5251 ft 279 kts 299°
2026-04-26 11:56 25.84136 -100.22475 6227 ft 281 kts 300°
2026-04-26 11:56 25.85235 -100.24277 7106 ft 285 kts 315°
2026-04-26 11:57 25.86959 -100.25344 7995 ft 289 kts 347°
2026-04-26 11:57 25.88963 -100.25297 8943 ft 294 kts 14°
2026-04-26 11:57 25.90758 -100.24200 9884 ft 301 kts 41°
2026-04-26 11:57 25.92130 -100.22402 10552 ft 315 kts 52°
2026-04-26 11:58 25.93353 -100.20266 10869 ft 340 kts 60°
2026-04-26 11:58 25.94366 -100.17809 11328 ft 357 kts 68°
2026-04-26 11:58 25.95098 -100.15136 12016 ft 366 kts 76°
2026-04-26 11:58 25.95519 -100.12321 12730 ft 373 kts 84°
2026-04-26 11:59 25.95716 -100.09423 13462 ft 379 kts 84°
2026-04-26 11:59 25.96057 -100.06492 14128 ft 385 kts 81°
2026-04-26 11:59 25.96515 -100.03554 14813 ft 389 kts 79°
2026-04-26 11:59 25.97027 -100.00590 15505 ft 393 kts 78°
2026-04-26 12:00 25.97537 -99.97662 16194 ft 396 kts 78°
2026-04-26 12:00 25.98043 -99.94640 16890 ft 400 kts 79°
2026-04-26 12:00 25.98530 -99.91576 17616 ft 404 kts 79°
2026-04-26 12:00 25.98999 -99.88482 18315 ft 408 kts 79°
2026-04-26 12:01 25.99461 -99.85353 18903 ft 413 kts 79°
2026-04-26 12:01 25.99919 -99.82189 19502 ft 417 kts 80°
2026-04-26 12:01 26.00341 -99.78984 20105 ft 421 kts 81°
2026-04-26 12:01 26.00733 -99.75729 20677 ft 427 kts 81°
2026-04-26 12:02 26.01112 -99.72394 21240 ft 432 kts 82°
2026-04-26 12:02 26.01485 -99.69057 21813 ft 438 kts 82°
2026-04-26 12:02 26.01866 -99.65677 22353 ft 443 kts 81°
2026-04-26 12:02 26.02258 -99.62263 22889 ft 448 kts 81°
2026-04-26 12:03 26.02662 -99.58808 23407 ft 453 kts 81°
2026-04-26 12:03 26.03078 -99.55315 23845 ft 458 kts 81°
2026-04-26 12:03 26.03501 -99.51789 24292 ft 462 kts 81°
2026-04-26 12:03 26.03926 -99.48235 24742 ft 466 kts 81°
2026-04-26 12:04 26.04352 -99.44643 25181 ft 470 kts 81°
2026-04-26 12:04 26.04777 -99.41033 25654 ft 473 kts 81°
2026-04-26 12:04 26.05201 -99.37396 26094 ft 476 kts 81°
2026-04-26 12:04 26.05626 -99.33727 26530 ft 480 kts 81°
2026-04-26 12:05 26.06054 -99.30030 26964 ft 484 kts 81°
2026-04-26 12:05 26.06486 -99.26302 27391 ft 488 kts 81°
2026-04-26 12:05 26.06923 -99.22542 27815 ft 492 kts 81°
2026-04-26 12:05 26.07363 -99.18754 28235 ft 496 kts 81°
2026-04-26 12:06 26.07807 -99.14937 28636 ft 500 kts 81°
2026-04-26 12:06 26.08254 -99.11091 29028 ft 503 kts 81°
2026-04-26 12:06 26.08699 -99.07212 29421 ft 507 kts 81°
2026-04-26 12:06 26.09142 -99.03319 29853 ft 509 kts 81°
2026-04-26 12:07 26.09589 -98.99398 30194 ft 512 kts 81°
2026-04-26 12:07 26.10039 -98.95460 30530 ft 515 kts 81°
2026-04-26 12:07 26.10490 -98.91505 30874 ft 517 kts 81°
2026-04-26 12:07 26.10939 -98.87530 31249 ft 518 kts 81°
2026-04-26 12:08 26.11387 -98.83566 31746 ft 516 kts 81°
2026-04-26 12:08 26.11832 -98.79606 32245 ft 514 kts 81°
2026-04-26 12:08 26.12276 -98.75664 32741 ft 513 kts 81°
2026-04-26 12:08 26.12720 -98.71733 33239 ft 511 kts 81°
2026-04-26 12:09 26.13186 -98.67818 33741 ft 509 kts 77°
2026-04-26 12:09 26.13954 -98.63990 34172 ft 506 kts 73°
2026-04-26 12:09 26.14786 -98.60188 34581 ft 505 kts 73°
2026-04-26 12:09 26.15612 -98.56389 34977 ft 505 kts 73°
2026-04-26 12:10 26.16433 -98.52588 35360 ft 505 kts 73°
2026-04-26 12:10 26.17263 -98.48737 35732 ft 505 kts 73°
2026-04-26 12:10 26.18082 -98.44939 36090 ft 505 kts 72°
2026-04-26 12:10 26.18898 -98.41136 36481 ft 505 kts 72°
2026-04-26 12:11 26.19713 -98.37334 36828 ft 505 kts 72°
2026-04-26 12:11 26.20530 -98.33532 37178 ft 505 kts 72°
2026-04-26 12:11 26.21346 -98.29733 37557 ft 504 kts 72°
2026-04-26 12:11 26.22158 -98.25944 37922 ft 503 kts 72°
2026-04-26 12:12 26.22970 -98.22158 38274 ft 503 kts 72°
2026-04-26 12:12 26.23781 -98.18370 38582 ft 503 kts 72°
2026-04-26 12:12 26.24590 -98.14583 38768 ft 503 kts 72°
2026-04-26 12:13 26.26208 -98.06998 38815 ft 502 kts 72°
2026-04-26 12:13 26.27817 -97.99433 38819 ft 502 kts 72°
2026-04-26 12:14 26.29415 -97.91861 38816 ft 501 kts 72°
2026-04-26 12:14 26.31015 -97.84303 38813 ft 501 kts 72°
2026-04-26 12:15 26.32612 -97.76742 38812 ft 501 kts 72°
2026-04-26 12:15 26.34200 -97.69176 38824 ft 501 kts 72°
2026-04-26 12:16 26.35786 -97.61601 38822 ft 502 kts 72°
2026-04-26 12:16 26.37370 -97.54023 38841 ft 502 kts 72°
2026-04-26 12:17 26.38953 -97.46441 38829 ft 502 kts 72°
2026-04-26 12:17 26.40539 -97.38808 38828 ft 502 kts 72°
2026-04-26 12:18 26.42112 -97.31230 38822 ft 501 kts 72°
2026-04-26 12:18 26.43678 -97.23647 38822 ft 501 kts 72°
2026-04-26 12:19 26.45242 -97.16068 38817 ft 501 kts 72°
2026-04-26 12:19 26.46796 -97.08491 38823 ft 501 kts 73°
2026-04-26 12:20 26.48350 -97.00910 38821 ft 501 kts 73°
2026-04-26 12:20 26.49897 -96.93326 38828 ft 501 kts 73°
2026-04-26 12:21 26.51441 -96.85737 38827 ft 501 kts 73°
2026-04-26 12:21 26.52982 -96.78142 38838 ft 501 kts 73°
2026-04-26 12:22 26.54521 -96.70559 38839 ft 501 kts 73°
2026-04-26 12:22 26.56057 -96.62978 38835 ft 500 kts 73°
2026-04-26 12:23 26.57580 -96.55394 38840 ft 500 kts 73°
2026-04-26 12:23 26.59106 -96.47808 38840 ft 500 kts 73°
2026-04-26 12:24 26.60625 -96.40226 38844 ft 500 kts 73°
2026-04-26 12:24 26.62134 -96.32646 38851 ft 499 kts 73°
2026-04-26 12:25 26.64409 -96.21242 38847 ft 499 kts 73°
2026-04-26 12:25 26.65913 -96.13677 38846 ft 499 kts 73°
2026-04-26 12:26 26.67404 -96.06103 38849 ft 499 kts 73°
2026-04-26 12:26 26.68890 -95.98531 38855 ft 498 kts 73°
2026-04-26 12:27 26.70367 -95.90955 38859 ft 498 kts 73°
2026-04-26 12:27 26.71848 -95.83387 38858 ft 498 kts 73°
2026-04-26 12:28 26.73083 -95.77098 38865 ft 498 kts 73°
2026-04-26 12:28 26.74566 -95.69519 38872 ft 499 kts 73°
2026-04-26 12:29 26.76039 -95.61941 38884 ft 498 kts 73°
2026-04-26 12:30 26.78238 -95.50567 38870 ft 499 kts 73°
2026-04-26 12:30 26.79706 -95.42931 38870 ft 499 kts 73°
2026-04-26 12:31 26.81895 -95.31554 38872 ft 498 kts 73°
2026-04-26 12:31 26.83347 -95.23970 38868 ft 498 kts 73°
2026-04-26 12:32 26.84787 -95.16387 38871 ft 498 kts 73°
2026-04-26 12:33 26.86950 -95.05014 38865 ft 498 kts 73°
2026-04-26 12:33 26.88388 -94.97430 38867 ft 498 kts 73°
2026-04-26 12:34 26.89817 -94.89842 38876 ft 498 kts 73°
2026-04-26 12:34 26.91242 -94.82247 38878 ft 498 kts 73°
2026-04-26 12:35 26.92669 -94.74656 38879 ft 498 kts 73°
2026-04-26 12:35 26.94089 -94.67061 38879 ft 498 kts 73°
2026-04-26 12:36 26.95500 -94.59474 38874 ft 498 kts 73°
2026-04-26 12:36 26.96916 -94.51880 38888 ft 497 kts 73°
2026-04-26 12:37 26.98324 -94.44293 38883 ft 497 kts 73°
2026-04-26 12:37 26.99729 -94.36646 38887 ft 497 kts 73°
2026-04-26 12:38 27.01130 -94.29058 38885 ft 497 kts 73°
2026-04-26 12:38 27.02524 -94.21459 38885 ft 497 kts 73°
2026-04-26 12:39 27.03909 -94.13864 38887 ft 497 kts 73°
2026-04-26 12:39 27.05297 -94.06269 38889 ft 497 kts 73°
2026-04-26 12:40 27.06684 -93.98667 38894 ft 497 kts 73°
2026-04-26 12:40 27.08059 -93.91061 38902 ft 497 kts 73°
2026-04-26 12:41 27.08738 -93.83284 38897 ft 503 kts 82°
2026-04-26 12:41 27.09149 -93.75454 38901 ft 502 kts 82°
2026-04-26 12:42 27.09571 -93.67632 38900 ft 502 kts 82°
2026-04-26 12:42 27.09988 -93.59801 38900 ft 503 kts 82°
2026-04-26 12:43 27.10395 -93.51971 38899 ft 503 kts 82°
2026-04-26 12:43 27.10794 -93.44132 38902 ft 503 kts 82°
2026-04-26 12:44 27.11187 -93.36291 38905 ft 503 kts 82°
2026-04-26 12:44 27.11569 -93.28443 38906 ft 503 kts 82°
2026-04-26 12:45 27.11960 -93.20548 38909 ft 503 kts 82°
2026-04-26 12:45 27.12352 -93.12709 38909 ft 503 kts 82°
2026-04-26 12:46 27.12733 -93.04866 38920 ft 503 kts 82°
2026-04-26 12:46 27.13105 -92.97022 38916 ft 503 kts 82°
2026-04-26 12:47 27.13472 -92.89186 38913 ft 503 kts 82°
2026-04-26 12:47 27.13835 -92.81353 38912 ft 503 kts 82°
2026-04-26 12:48 27.14188 -92.73521 38913 ft 502 kts 82°
2026-04-26 12:48 27.14538 -92.65685 38926 ft 502 kts 82°
2026-04-26 12:49 27.14891 -92.57853 38922 ft 502 kts 82°
2026-04-26 12:49 27.15246 -92.50022 38927 ft 503 kts 82°
2026-04-26 12:50 27.15592 -92.42169 38920 ft 504 kts 82°
2026-04-26 12:50 27.15927 -92.34307 38918 ft 504 kts 82°
2026-04-26 12:51 27.16259 -92.26439 38933 ft 505 kts 82°
2026-04-26 12:51 27.16590 -92.18567 38930 ft 505 kts 82°
2026-04-26 12:52 27.16921 -92.10687 38931 ft 505 kts 82°
2026-04-26 12:52 27.17241 -92.02803 38931 ft 505 kts 82°
2026-04-26 12:53 27.17557 -91.94868 38938 ft 506 kts 82°
2026-04-26 12:53 27.17900 -91.86975 38944 ft 505 kts 81°
2026-04-26 12:54 27.18256 -91.79092 38947 ft 505 kts 81°
2026-04-26 12:54 27.18598 -91.71217 38947 ft 505 kts 81°
2026-04-26 12:55 27.18927 -91.63343 38948 ft 505 kts 81°
2026-04-26 12:55 27.19252 -91.55473 38948 ft 505 kts 81°
2026-04-26 12:56 27.19579 -91.47603 38963 ft 504 kts 81°
2026-04-26 12:56 27.19897 -91.39733 38960 ft 504 kts 81°
2026-04-26 12:57 27.20209 -91.31874 38960 ft 503 kts 81°
2026-04-26 12:57 27.20521 -91.24032 38957 ft 503 kts 81°
2026-04-26 12:58 27.20974 -91.12265 38969 ft 502 kts 81°
2026-04-26 12:58 27.21274 -91.04432 38964 ft 502 kts 81°
2026-04-26 12:59 27.21576 -90.96603 38963 ft 501 kts 81°
2026-04-26 12:59 27.21870 -90.88772 38965 ft 501 kts 81°
2026-04-26 13:00 27.22152 -90.80949 38964 ft 501 kts 81°
2026-04-26 13:00 27.22435 -90.73120 38986 ft 502 kts 81°
2026-04-26 13:01 27.22671 -90.66555 38980 ft 502 kts 81°
2026-04-26 13:01 27.22942 -90.58706 38979 ft 503 kts 81°
2026-04-26 13:02 27.23205 -90.50861 38976 ft 502 kts 81°
2026-04-26 13:02 27.23473 -90.43026 38979 ft 502 kts 81°
2026-04-26 13:03 27.23736 -90.35178 38998 ft 502 kts 81°
2026-04-26 13:03 27.23996 -90.27330 38991 ft 503 kts 81°
2026-04-26 13:04 27.24248 -90.19477 38984 ft 503 kts 81°
2026-04-26 13:04 27.24492 -90.11625 38986 ft 503 kts 81°
2026-04-26 13:05 27.24738 -90.03766 38983 ft 503 kts 82°
2026-04-26 13:05 27.24976 -89.95850 38998 ft 503 kts 82°
2026-04-26 13:06 27.25215 -89.87985 38994 ft 503 kts 82°
2026-04-26 13:06 27.25450 -89.80132 38993 ft 503 kts 82°
2026-04-26 13:07 27.25670 -89.72274 38983 ft 503 kts 82°
2026-04-26 13:07 27.25895 -89.64413 38985 ft 503 kts 82°
2026-04-26 13:08 27.26121 -89.56551 38985 ft 504 kts 82°
2026-04-26 13:08 27.26336 -89.48678 38988 ft 504 kts 82°
2026-04-26 13:09 27.26538 -89.40806 38991 ft 504 kts 82°
2026-04-26 13:09 27.26738 -89.32928 38991 ft 504 kts 82°
2026-04-26 13:10 27.26936 -89.25052 38994 ft 504 kts 82°
2026-04-26 13:10 27.27138 -89.17177 39006 ft 504 kts 82°
2026-04-26 13:11 27.27334 -89.09303 38998 ft 504 kts 82°
2026-04-26 13:11 27.27516 -89.01428 38994 ft 504 kts 82°
2026-04-26 13:12 27.27699 -88.93557 38991 ft 504 kts 82°
2026-04-26 13:12 27.27871 -88.85688 38988 ft 503 kts 82°
2026-04-26 13:13 27.28045 -88.77821 38995 ft 503 kts 82°
2026-04-26 13:13 27.28223 -88.69906 38990 ft 503 kts 82°
2026-04-26 13:14 27.28386 -88.62037 38988 ft 504 kts 82°
2026-04-26 13:14 27.28549 -88.54164 38988 ft 504 kts 82°
2026-04-26 13:15 27.28707 -88.46285 39006 ft 504 kts 83°
2026-04-26 13:15 27.28854 -88.38403 39000 ft 504 kts 83°
2026-04-26 13:16 27.29006 -88.30519 38994 ft 504 kts 82°
2026-04-26 13:16 27.29690 -88.22740 38994 ft 500 kts 77°
2026-04-26 13:17 27.30833 -88.11077 38995 ft 501 kts 77°
2026-04-26 13:18 27.31948 -87.99413 39005 ft 500 kts 77°
2026-04-26 13:19 27.33049 -87.87736 39002 ft 501 kts 77°
2026-04-26 13:19 27.33780 -87.79944 38999 ft 501 kts 77°
2026-04-26 13:20 27.34505 -87.72161 38996 ft 501 kts 77°
2026-04-26 13:20 27.35230 -87.64374 39013 ft 500 kts 77°
2026-04-26 13:21 27.35956 -87.56602 39013 ft 500 kts 77°
2026-04-26 13:21 27.36677 -87.48824 39011 ft 500 kts 77°
2026-04-26 13:22 27.37390 -87.40987 39011 ft 500 kts 77°
2026-04-26 13:22 27.38104 -87.33214 39010 ft 500 kts 77°
2026-04-26 13:23 27.38811 -87.25445 39019 ft 499 kts 77°
2026-04-26 13:23 27.39508 -87.17680 39014 ft 498 kts 77°
2026-04-26 13:24 27.40199 -87.09929 39015 ft 498 kts 77°
2026-04-26 13:24 27.40884 -87.02172 39008 ft 498 kts 77°
2026-04-26 13:25 27.41567 -86.94425 39018 ft 497 kts 77°
2026-04-26 13:25 27.42247 -86.86676 39018 ft 497 kts 78°
2026-04-26 13:26 27.42917 -86.78936 39017 ft 497 kts 78°
2026-04-26 13:26 27.43583 -86.71198 39029 ft 496 kts 78°
2026-04-26 13:27 27.44249 -86.63466 39029 ft 496 kts 78°
2026-04-26 13:27 27.44915 -86.55746 39023 ft 495 kts 79°
2026-04-26 13:28 27.45572 -86.48034 39024 ft 494 kts 79°
2026-04-26 13:28 27.46216 -86.40346 39022 ft 493 kts 79°
2026-04-26 13:29 27.46850 -86.32670 39017 ft 492 kts 79°
2026-04-26 13:29 27.47488 -86.25002 39016 ft 491 kts 79°
2026-04-26 13:30 27.48129 -86.17292 39029 ft 491 kts 79°
2026-04-26 13:30 27.48764 -86.09638 39024 ft 490 kts 79°
2026-04-26 13:31 27.49384 -86.01996 39025 ft 490 kts 79°
2026-04-26 13:31 27.49997 -85.94364 39022 ft 489 kts 79°
2026-04-26 13:32 27.50607 -85.86734 39017 ft 489 kts 79°
2026-04-26 13:32 27.51215 -85.79108 39017 ft 489 kts 79°
2026-04-26 13:33 27.51813 -85.71482 39017 ft 489 kts 79°
2026-04-26 13:33 27.52411 -85.63857 39017 ft 489 kts 79°
2026-04-26 13:34 27.53010 -85.56233 39013 ft 488 kts 79°
2026-04-26 13:34 27.53606 -85.48614 39013 ft 488 kts 79°
2026-04-26 13:35 27.54099 -85.42228 39022 ft 488 kts 79°
2026-04-26 13:35 27.54684 -85.34607 39025 ft 487 kts 80°
2026-04-26 13:36 27.55259 -85.27013 39024 ft 486 kts 80°
2026-04-26 13:36 27.55819 -85.19426 39020 ft 486 kts 82°
2026-04-26 13:37 27.55251 -85.11776 39013 ft 495 kts 97°
2026-04-26 13:37 27.53904 -85.04168 39022 ft 495 kts 98°
2026-04-26 13:38 27.52564 -84.96574 39025 ft 493 kts 98°
2026-04-26 13:38 27.51233 -84.89008 39024 ft 492 kts 98°
2026-04-26 13:39 27.49905 -84.81459 39017 ft 491 kts 98°
2026-04-26 13:39 27.48565 -84.73924 39016 ft 490 kts 98°
2026-04-26 13:40 27.47216 -84.66402 39021 ft 490 kts 98°
2026-04-26 13:40 27.45877 -84.58892 39024 ft 488 kts 98°
2026-04-26 13:41 27.44540 -84.51411 39023 ft 487 kts 98°
2026-04-26 13:41 27.43201 -84.43948 39019 ft 486 kts 98°
2026-04-26 13:42 27.41852 -84.36507 39019 ft 485 kts 98°
2026-04-26 13:42 27.40491 -84.29023 39016 ft 485 kts 98°
2026-04-26 13:43 27.39146 -84.21595 39017 ft 484 kts 98°
2026-04-26 13:43 27.37799 -84.14168 39014 ft 484 kts 98°
2026-04-26 13:44 27.36447 -84.06749 39013 ft 484 kts 98°
2026-04-26 13:44 27.35089 -83.99336 39009 ft 484 kts 98°
2026-04-26 13:45 27.33742 -83.91923 39000 ft 484 kts 98°
2026-04-26 13:45 27.32377 -83.84512 39008 ft 484 kts 98°
2026-04-26 13:46 27.31003 -83.77098 39003 ft 485 kts 98°
2026-04-26 13:46 27.29623 -83.69672 39006 ft 485 kts 98°
2026-04-26 13:47 27.28242 -83.62247 39007 ft 485 kts 98°
2026-04-26 13:47 27.26854 -83.54820 39009 ft 486 kts 98°
2026-04-26 13:48 27.25462 -83.47400 39008 ft 486 kts 98°
2026-04-26 13:48 27.24066 -83.39971 39006 ft 486 kts 98°
2026-04-26 13:49 27.22666 -83.32539 39006 ft 486 kts 98°
2026-04-26 13:49 27.21258 -83.25106 39006 ft 486 kts 98°
2026-04-26 13:50 27.19849 -83.17685 39006 ft 486 kts 98°
2026-04-26 13:50 27.18421 -83.10204 39018 ft 486 kts 98°
2026-04-26 13:51 27.17009 -83.02792 39014 ft 485 kts 98°
2026-04-26 13:51 27.15598 -82.95378 39003 ft 485 kts 98°
2026-04-26 13:52 27.14179 -82.87979 39006 ft 486 kts 99°
2026-04-26 13:52 27.11683 -82.80907 39004 ft 492 kts 118°
2026-04-26 13:53 27.08083 -82.74363 39016 ft 492 kts 120°
2026-04-26 13:53 27.04499 -82.67838 39019 ft 490 kts 120°
2026-04-26 13:54 27.00935 -82.61334 39024 ft 489 kts 120°
2026-04-26 13:54 26.97366 -82.54851 39010 ft 488 kts 120°
2026-04-26 13:55 26.92552 -82.46278 39005 ft 489 kts 124°
2026-04-26 13:55 26.86986 -82.39921 39014 ft 491 kts 139°
2026-04-26 13:56 26.84385 -82.37433 39017 ft 491 kts 139°
2026-04-26 13:56 26.79205 -82.32466 39016 ft 490 kts 139°
2026-04-26 13:57 26.74039 -82.27508 38888 ft 492 kts 139°
2026-04-26 13:57 26.71428 -82.25003 38653 ft 492 kts 139°
2026-04-26 13:57 26.68850 -82.22532 38357 ft 488 kts 139°
2026-04-26 13:57 26.66264 -82.20054 37504 ft 492 kts 139°
2026-04-26 13:58 26.63655 -82.17558 36645 ft 496 kts 140°
2026-04-26 13:58 26.60987 -82.15013 35702 ft 502 kts 140°
2026-04-26 13:58 26.58309 -82.12465 34636 ft 510 kts 140°
2026-04-26 13:58 26.55581 -82.09869 33540 ft 518 kts 140°
2026-04-26 13:59 26.52828 -82.07246 32589 ft 520 kts 140°
2026-04-26 13:59 26.50090 -82.04594 31445 ft 523 kts 139°
2026-04-26 13:59 26.47414 -82.01922 30544 ft 511 kts 138°
2026-04-26 14:00 26.39817 -81.94132 28363 ft 484 kts 138°
2026-04-26 14:00 26.37344 -81.91611 27695 ft 479 kts 138°
2026-04-26 14:00 26.35715 -81.89964 27245 ft 476 kts 139°
2026-04-26 14:01 26.32439 -81.86684 26404 ft 470 kts 139°
2026-04-26 14:01 26.30034 -81.84287 26032 ft 459 kts 139°
2026-04-26 14:01 26.27665 -81.81927 25448 ft 455 kts 139°
2026-04-26 14:01 26.25358 -81.79537 24894 ft 452 kts 133°
2026-04-26 14:02 26.23406 -81.76817 24370 ft 447 kts 123°
2026-04-26 14:02 26.21911 -81.73807 23861 ft 443 kts 114°
2026-04-26 14:02 26.20591 -81.70718 23315 ft 440 kts 114°
2026-04-26 14:02 26.19267 -81.67661 22772 ft 437 kts 114°
2026-04-26 14:03 26.17944 -81.64634 22283 ft 433 kts 115°
2026-04-26 14:03 26.16628 -81.61632 21810 ft 430 kts 115°
2026-04-26 14:03 26.15323 -81.58654 21332 ft 426 kts 115°
2026-04-26 14:03 26.14032 -81.55704 20818 ft 421 kts 115°
2026-04-26 14:04 26.12760 -81.52795 20084 ft 415 kts 115°
2026-04-26 14:04 26.11506 -81.49925 19327 ft 410 kts 115°
2026-04-26 14:04 26.10261 -81.47072 18757 ft 408 kts 115°
2026-04-26 14:04 26.09030 -81.44254 18178 ft 401 kts 115°
2026-04-26 14:05 26.07817 -81.41479 17375 ft 396 kts 115°
2026-04-26 14:05 26.06626 -81.38761 16811 ft 385 kts 115°
2026-04-26 14:05 26.05465 -81.36101 16304 ft 382 kts 115°
2026-04-26 14:05 26.04309 -81.33436 15780 ft 382 kts 114°
2026-04-26 14:06 26.03156 -81.30780 15257 ft 382 kts 115°
2026-04-26 14:06 26.01985 -81.28091 14733 ft 381 kts 115°
2026-04-26 14:06 26.00832 -81.25439 14247 ft 380 kts 114°
2026-04-26 14:06 25.99684 -81.22803 13729 ft 380 kts 114°
2026-04-26 14:07 25.98927 -81.21067 13491 ft 375 kts 114°
2026-04-26 14:07 25.97798 -81.18486 12861 ft 369 kts 114°
2026-04-26 14:07 25.96684 -81.15943 12218 ft 361 kts 114°
2026-04-26 14:07 25.95601 -81.13474 11696 ft 350 kts 115°
2026-04-26 14:08 25.94546 -81.11075 11187 ft 341 kts 115°
2026-04-26 14:08 25.93533 -81.08769 11012 ft 322 kts 115°
2026-04-26 14:08 25.92569 -81.06573 10643 ft 312 kts 114°
2026-04-26 14:08 25.91627 -81.04424 10397 ft 309 kts 114°
2026-04-26 14:09 25.90716 -81.02276 10247 ft 305 kts 112°
2026-04-26 14:09 25.89873 -81.00124 10115 ft 302 kts 111°
2026-04-26 14:09 25.89067 -80.97981 9972 ft 301 kts 111°
2026-04-26 14:09 25.88262 -80.95815 9491 ft 304 kts 111°
2026-04-26 14:10 25.87457 -80.93669 9208 ft 298 kts 111°
2026-04-26 14:10 25.86653 -80.91543 8825 ft 296 kts 112°
2026-04-26 14:10 25.85859 -80.89461 8540 ft 291 kts 112°
2026-04-26 14:10 25.85072 -80.87407 8269 ft 287 kts 113°
2026-04-26 14:11 25.83502 -80.83334 7718 ft 282 kts 113°
2026-04-26 14:11 25.82745 -80.81366 7433 ft 281 kts 113°
2026-04-26 14:11 25.81972 -80.79355 7144 ft 279 kts 113°
2026-04-26 14:12 25.81212 -80.77385 6862 ft 277 kts 114°
2026-04-26 14:12 25.80456 -80.75422 6574 ft 276 kts 114°
2026-04-26 14:12 25.79704 -80.73477 6293 ft 273 kts 114°
2026-04-26 14:12 25.78958 -80.71549 6007 ft 270 kts 114°
2026-04-26 14:13 25.77519 -80.67735 5461 ft 266 kts 109°
2026-04-26 14:13 25.77170 -80.65729 5184 ft 264 kts 94°
2026-04-26 14:13 25.77218 -80.63713 4919 ft 258 kts 88°
2026-04-26 14:14 25.77316 -80.61745 4669 ft 253 kts 88°
2026-04-26 14:14 25.77405 -80.59812 4406 ft 250 kts 88°
2026-04-26 14:14 25.77492 -80.57887 4151 ft 249 kts 88°
2026-04-26 14:14 25.77578 -80.55971 3910 ft 248 kts 88°
2026-04-26 14:15 25.77654 -80.54063 3700 ft 248 kts 89°
2026-04-26 14:15 25.77729 -80.52159 3559 ft 248 kts 88°
2026-04-26 14:15 25.77811 -80.50256 3298 ft 247 kts 89°
2026-04-26 14:15 25.77893 -80.48361 2987 ft 246 kts 89°
2026-04-26 14:16 25.77974 -80.46473 2669 ft 244 kts 89°
2026-04-26 14:16 25.78054 -80.44601 2351 ft 240 kts 89°
2026-04-26 14:16 25.78132 -80.42779 2033 ft 233 kts 89°
2026-04-26 14:16 25.78207 -80.41019 1741 ft 225 kts 88°
2026-04-26 14:17 25.78280 -80.39300 1437 ft 218 kts 89°
2026-04-26 14:17 25.78349 -80.37682 1170 ft 203 kts 89°
2026-04-26 14:17 25.78413 -80.36185 934 ft 188 kts 90°
2026-04-26 14:17 25.78472 -80.34778 694 ft 176 kts 89°
2026-04-26 14:18 25.78526 -80.33481 518 ft 159 kts 89°
2026-04-26 14:18 25.78577 -80.32323 302 ft 144 kts 90°
2026-04-26 14:18 25.78621 -80.31242 68 ft 137 kts 90°
2026-04-26 14:18 25.78664 -80.30237 18 ft 117 kts 88°
2026-04-26 14:19 25.78682 -80.29604 15 ft 48 kts 86°
2026-04-26 14:19 25.78701 -80.29377 15 ft 9 kts 83°
2026-04-26 14:19 25.78715 -80.29278 16 ft 17 kts 71°
2026-04-26 14:19 25.78756 -80.29203 15 ft 12 kts 47°
2026-04-26 14:20 25.78816 -80.29132 16 ft 18 kts 78°
2026-04-26 14:20 25.78802 -80.29023 16 ft 16 kts 58°
2026-04-26 14:20 25.78853 -80.28920 15 ft 19 kts 69°
2026-04-26 14:20 25.78867 -80.28781 15 ft 11 kts 88°
2026-04-26 14:21 25.78871 -80.28685 16 ft 14 kts 86°
2026-04-26 14:21 25.78901 -80.28610 15 ft 11 kts 40°
2026-04-26 14:21 25.78957 -80.28560 15 ft 7 kts 36°
2026-04-26 14:21 25.78973 -80.28548 15 ft 1 kts 34°
2026-04-26 14:22 25.78974 -80.28548 15 ft 0 kts 34°
2026-04-26 14:22 25.78989 -80.28536 15 ft 5 kts 34°
2026-04-26 14:22 25.79031 -80.28505 15 ft 10 kts 33°
2026-04-26 14:22 25.79099 -80.28456 15 ft 14 kts 32°
2026-04-26 14:23 25.79186 -80.28403 15 ft 14 kts 20°
2026-04-26 14:23 25.79265 -80.28349 15 ft 10 kts 45°
2026-04-26 14:23 25.79322 -80.28287 15 ft 10 kts 43°
2026-04-26 14:23 25.79385 -80.28264 15 ft 9 kts
2026-04-26 14:24 25.79435 -80.28275 15 ft 7 kts 324°
2026-04-26 14:24 25.79447 -80.28314 15 ft 3 kts 274°
2026-04-26 14:24 25.79450 -80.28330 15 ft 2 kts 284°
2026-04-26 14:24 25.79453 -80.28340 15 ft 0 kts 285°
2026-04-26 14:25 25.79453 -80.28341 15 ft 0 kts 285°